TimeCET,TemperatureF,Dew PointF,Humidity,Sea Level PressureIn,VisibilityMPH,Wind Direction,Wind SpeedMPH,Gust SpeedMPH,PrecipitationIn,Events,Conditions,WindDirDegrees,DateUTC
12:00 AM,48.2,41.0,76,30.18,-9999.0,East,6.9,-,N/A,,Clear,100,2013-01-05 23:00:00
12:30 AM,48.2,41.0,76,30.18,-9999.0,East,4.6,-,N/A,,Clear,100,2013-01-05 23:30:00
1:00 AM,48,40,67,30.20,12,East,4.5,,,,,100,2013-01-06 00:00:00
1:00 AM,48.2,41.0,76,30.18,-9999.0,East,4.6,-,N/A,,Clear,100,2013-01-06 00:00:00
1:30 AM,44.6,37.4,76,30.18,-9999.0,Variable,1.2,-,N/A,,Clear,0,2013-01-06 00:30:00
2:00 AM,42.8,39.2,87,30.18,-9999.0,East,4.6,-,N/A,,Clear,90,2013-01-06 01:00:00
2:30 AM,44.6,41.0,87,30.18,-9999.0,East,5.8,-,N/A,,Clear,100,2013-01-06 01:30:00
3:00 AM,44.6,39.2,81,30.18,-9999.0,East,6.9,-,N/A,,Clear,100,2013-01-06 02:00:00
3:30 AM,44.6,39.2,81,30.15,-9999.0,East,9.2,-,N/A,,Clear,100,2013-01-06 02:30:00
4:00 AM,46,40,72,30.18,12,East,11.2,,,,,90,2013-01-06 03:00:00
4:00 AM,46.4,39.2,76,30.15,-9999.0,East,10.4,-,N/A,,Clear,90,2013-01-06 03:00:00
4:30 AM,46.4,39.2,76,30.18,-9999.0,Variable,2.3,-,N/A,,Clear,0,2013-01-06 03:30:00
5:00 AM,42.8,37.4,81,30.18,-9999.0,NW,5.8,-,N/A,,Clear,320,2013-01-06 04:00:00
5:30 AM,44.6,41.0,87,30.18,-9999.0,NNW,6.9,-,N/A,,Clear,340,2013-01-06 04:30:00
6:00 AM,45,42,83,30.21,12,NNW,8.9,,,,Mostly Cloudy,340,2013-01-06 05:00:00
6:00 AM,44.6,41.0,87,30.18,-9999.0,NNW,8.1,-,N/A,,Clear,340,2013-01-06 05:00:00
6:30 AM,44.6,41.0,87,30.18,-9999.0,NNE,10.4,-,N/A,,Clear,20,2013-01-06 05:30:00
7:00 AM,46,42,79,30.22,12,NNE,6.7,,,,Scattered Clouds,20,2013-01-06 06:00:00
7:00 AM,44.6,41.0,87,30.21,-9999.0,NNE,5.8,-,N/A,,Clear,20,2013-01-06 06:00:00
7:30 AM,46.4,41.0,81,30.21,-9999.0,NNE,5.8,-,N/A,,Clear,20,2013-01-06 06:30:00
8:00 AM,46.4,41.0,81,30.21,-9999.0,North,5.8,-,N/A,,Clear,10,2013-01-06 07:00:00
8:30 AM,46.4,41.0,81,30.21,-9999.0,NNE,5.8,-,N/A,,Clear,20,2013-01-06 07:30:00
9:00 AM,48.2,41.0,76,30.21,-9999.0,NNE,8.1,-,N/A,,Clear,20,2013-01-06 08:00:00
9:30 AM,48.2,41.0,76,30.21,-9999.0,NE,5.8,-,N/A,,Clear,40,2013-01-06 08:30:00
10:00 AM,49,42,69,30.22,12,NNE,6.7,,,,Partly Cloudy,30,2013-01-06 09:00:00
10:00 AM,48.2,42.8,82,30.21,-9999.0,NNE,5.8,-,N/A,,Clear,30,2013-01-06 09:00:00
10:30 AM,53.6,44.6,72,30.21,-9999.0,Variable,3.5,-,N/A,,Clear,0,2013-01-06 09:30:00
11:00 AM,57.2,44.6,63,30.21,-9999.0,Variable,3.5,-,N/A,,Clear,0,2013-01-06 10:00:00
11:30 AM,57.2,44.6,63,30.18,-9999.0,WNW,4.6,-,N/A,,Clear,290,2013-01-06 10:30:00
12:00 PM,57.2,44.6,63,30.18,-9999.0,West,6.9,-,N/A,,Clear,260,2013-01-06 11:00:00
12:30 PM,57.2,42.8,59,30.15,-9999.0,West,6.9,-,N/A,,Clear,260,2013-01-06 11:30:00
1:00 PM,58,41,42,30.15,16,West,6.7,,,,,260,2013-01-06 12:00:00
1:00 PM,57.2,41.0,55,30.12,-9999.0,West,5.8,-,N/A,,Clear,260,2013-01-06 12:00:00
1:30 PM,57.2,41.0,55,30.12,-9999.0,WSW,5.8,-,N/A,,Clear,250,2013-01-06 12:30:00
2:00 PM,57.2,39.2,51,30.09,-9999.0,West,6.9,-,N/A,,Clear,270,2013-01-06 13:00:00
2:30 PM,57.2,39.2,51,30.09,-9999.0,WSW,4.6,-,N/A,,Clear,240,2013-01-06 13:30:00
3:00 PM,55.4,41.0,58,30.09,-9999.0,WSW,4.6,-,N/A,,Clear,240,2013-01-06 14:00:00
3:30 PM,55.4,42.8,63,30.06,-9999.0,Variable,2.3,-,N/A,,Clear,0,2013-01-06 14:30:00
4:00 PM,54,41,51,30.08,19,Calm,Calm,,,,Clear,,2013-01-06 15:00:00
4:00 PM,53.6,41.0,62,30.06,-9999.0,Calm,Calm,-,N/A,,Clear,0,2013-01-06 15:00:00
4:30 PM,50.0,41.0,71,30.06,-9999.0,Calm,Calm,-,N/A,,Clear,0,2013-01-06 15:30:00
5:00 PM,46.4,39.2,76,30.04,-9999.0,Variable,1.2,-,N/A,,Clear,0,2013-01-06 16:00:00
5:30 PM,42.8,37.4,81,30.04,-9999.0,East,4.6,-,N/A,,Clear,80,2013-01-06 16:30:00
6:00 PM,42.8,39.2,87,30.04,-9999.0,East,4.6,-,N/A,,Clear,90,2013-01-06 17:00:00
6:30 PM,42.8,41.0,93,30.04,-9999.0,Variable,3.5,-,N/A,,Clear,0,2013-01-06 17:30:00
7:00 PM,43,39,81,30.06,12,East,4.5,,,,Clear,80,2013-01-06 18:00:00
7:00 PM,42.8,39.2,87,30.04,-9999.0,East,5.8,-,N/A,,Clear,80,2013-01-06 18:00:00
7:30 PM,44.6,41.0,87,30.04,-9999.0,East,4.6,-,N/A,,Clear,90,2013-01-06 18:30:00
8:00 PM,44.6,41.0,87,30.04,-9999.0,East,4.6,-,N/A,,Clear,80,2013-01-06 19:00:00
8:30 PM,41.0,35.6,81,30.04,-9999.0,East,5.8,-,N/A,,Clear,80,2013-01-06 19:30:00
9:00 PM,44.6,41.0,87,30.04,-9999.0,Variable,2.3,-,N/A,,Clear,0,2013-01-06 20:00:00
9:30 PM,42.8,41.0,93,30.04,-9999.0,ENE,4.6,-,N/A,,Clear,70,2013-01-06 20:30:00
10:00 PM,39,36,86,30.07,12,East,4.5,,,,,80,2013-01-06 21:00:00
10:00 PM,39.2,35.6,87,30.04,-9999.0,East,4.6,-,N/A,,Clear,80,2013-01-06 21:00:00
10:30 PM,39.2,37.4,93,30.06,-9999.0,NE,4.6,-,N/A,,Clear,50,2013-01-06 21:30:00
11:00 PM,42.8,39.2,87,30.06,-9999.0,East,4.6,-,N/A,,Clear,80,2013-01-06 22:00:00
11:30 PM,41.0,37.4,87,30.06,-9999.0,NE,4.6,-,N/A,,Clear,50,2013-01-06 22:30:00